Weather History for GMFM - September, 2013

Change the Weather History Date:

Thursday, September 12, 2013

  Actual Average Record
Temperature  
Mean Temperature 72 °F -  
Max Temperature 83 °F - - ()
Min Temperature 62 °F - - ()
Cooling Degree Days 8    
Growing Degree Days 22 (Base 50)    
Moisture  
Dew Point 61 °F    
Average Humidity 69    
Maximum Humidity 88    
Minimum Humidity 39    
Precipitation  
Precipitation 0.12 in - - ()
Sea Level Pressure  
Sea Level Pressure 30.02 in    
Wind  
Wind Speed 3 mph ()    
Max Wind Speed 10 mph    
Max Gust Speed -    
Visibility 4.0 miles    
Events Thunderstorm    
T = Trace of Precipitation, MM = Missing Value Source: Averaged Metar Reports

Daily Weather History Graph

Daily Weather History Graph

Search for Another Location

Airport or City:

Trip Planner

Search our weather history database for the weather conditions in past years. The results will help you decide how hot, cold, wet, or windy it might be!

Date:

Astronomy

Sep. 12, 2013 Rise Set
Actual Time 7:03 AM WEST 7:32 PM WEST
Civil Twilight 6:38 AM WEST 7:57 PM WEST
Nautical Twilight 6:08 AM WEST 8:27 PM WEST
Astronomical Twilight 5:38 AM WEST 8:57 PM WEST
Moon 1:59 PM WEST (9/12) No Moon Set
Length of Visible Light 13h 19m
Length of Day
12h 29m
Waxing Crescent, 47% of the Moon is Illuminated
Sep 12
Waxing Crescent
Sep 12
First Quarter
Sep 19
Full
Sep 27
Last Quarter
Oct 5
New

Hourly Weather History & Observations

Time (WEST) Temp. Heat Index Dew Point Humidity Pressure Visibility Wind Dir Wind Speed Gust Speed Precip Events Conditions
12:00 AM 68.0 °F - 60.8 °F 78% 30.01 in - WNW 4.6 mph - N/A   Clear
1:00 AM 67 °F - 60 °F 70% 29.97 in 6 mi West 4.6 mph - -  
1:00 AM 68.0 °F - 59.0 °F 73% 30.04 in - West 4.6 mph - N/A   Clear
2:00 AM 64.4 °F - 59.0 °F 83% 30.04 in - Calm Calm - N/A   Clear
3:00 AM 64.4 °F - 60.8 °F 88% 30.01 in - Calm Calm - N/A   Clear
4:00 AM 64 °F - 59 °F 79% 29.96 in 6 mi SSE 2.3 mph - -  
4:00 AM 64.4 °F - 59.0 °F 83% 30.01 in - SSE 2.3 mph - N/A   Clear
5:00 AM 64.4 °F - 59.0 °F 83% 30.01 in - Calm Calm - N/A   Clear
6:00 AM 62.6 °F - 59.0 °F 88% 30.01 in - East 2.3 mph - N/A   Clear
6:45 AM 62.6 °F - 59.0 °F 88% 30.01 in 2.5 mi Calm Calm - N/A   Mist
7:00 AM 62 °F - 59 °F 87% 29.98 in 2 mi Calm Calm - -   Mist
7:00 AM 62.6 °F - 59.0 °F 88% 30.01 in 2.5 mi Calm Calm - N/A   Mist
8:00 AM 62.6 °F - 59.0 °F 88% 30.04 in 2.5 mi Calm Calm - N/A   Partly Cloudy
9:00 AM 68.0 °F - 62.6 °F 83% 30.04 in 2.5 mi Calm Calm - N/A   Partly Cloudy
9:45 AM 71.6 °F - 62.6 °F 73% 30.06 in 3.1 mi NNE 2.3 mph - N/A   Scattered Clouds
10:00 AM 71 °F - 62 °F 65% 29.98 in 3 mi NE 2.3 mph - -   Scattered Clouds
10:00 AM - - - N/A% 30.06 in 3.1 mi NE 2.3 mph - N/A   Scattered Clouds
11:00 AM 75.2 °F - 62.6 °F 65% 30.06 in 3.1 mi North 4.6 mph - N/A   Scattered Clouds
12:00 PM 75.2 °F - 62.6 °F 65% 30.06 in 3.1 mi NW 5.8 mph - N/A   Scattered Clouds
1:00 PM 78 °F - 63 °F 50% 29.94 in 3 mi North 4.6 mph - -   Partly Cloudy
1:00 PM 78.8 °F - 62.6 °F 57% 30.04 in 3.1 mi North 4.6 mph - N/A   Scattered Clouds
2:00 PM 80.6 °F 81.8 °F 62.6 °F 54% 30.04 in 4.3 mi NW 4.6 mph - N/A   Scattered Clouds
3:00 PM 82.4 °F 83.4 °F 62.6 °F 51% 30.01 in 4.3 mi NNW 6.9 mph - N/A   Scattered Clouds
4:00 PM 83 °F - 62 °F 39% 29.89 in 4 mi WNW 6.9 mph - -   Partly Cloudy
4:00 PM 84.2 °F 85.0 °F 62.6 °F 48% 30.01 in 4.3 mi WNW 6.9 mph - N/A   Scattered Clouds
5:00 PM 82.4 °F 82.9 °F 60.8 °F 48% 30.01 in 5.0 mi NW 8.1 mph - N/A   Scattered Clouds
6:00 PM 82.4 °F 82.9 °F 60.8 °F 48% 30.01 in 5.0 mi WNW 6.9 mph - N/A   Mostly Cloudy
7:00 PM 80 °F - 61 °F 43% 29.90 in 5 mi NW 6.9 mph - -   Scattered Clouds
7:00 PM 80.6 °F 81.5 °F 60.8 °F 51% 30.01 in 5.0 mi NW 6.9 mph - N/A   Mostly Cloudy
8:00 PM 75.2 °F - 62.6 °F 65% 30.01 in 5.0 mi NW 8.1 mph - N/A   Mostly Cloudy
9:00 PM 73.4 °F - 62.6 °F 69% 30.06 in 5.0 mi WNW 6.9 mph - N/A   Unknown
10:00 PM 70 °F - 62 °F 70% 30.01 in 5 mi West 5.8 mph - -   Scattered Clouds
10:00 PM 69.8 °F - 62.6 °F 78% 30.06 in 5.0 mi West 5.8 mph - N/A   Mostly Cloudy
11:00 PM 69.8 °F - 62.6 °F 78% 30.09 in 5.0 mi SW 10.4 mph - N/A   Mostly Cloudy
11:31 PM 69.8 °F - 62.6 °F 78% 30.09 in 3.7 mi SW 2.3 mph - N/A Thunderstorm Thunderstorm